Regional Weather Roundup
Issued by NWS

Home | Current Version | Previous Version | Text Only | Print | Product List | Glossary Off
Versions: 1 2 3 4 5 6 7 8 9 10 11 12 13 14 15 16 17 18 19 20 21 22 23 24 25 26 27 28 29 30 31 32 33 34 35 36 37 38 39 40 41 42 43 44 45 46 47 48 49 50

000
ASUS43 KLSX 232107
RWRMO

WEATHER SUMMARY FOR MISSOURI
NATIONAL WEATHER SERVICE SPRINGFIELD MO
400 PM CDT SAT MAY 23 2015

NOTE: "FAIR" INDICATES FEW OR NO CLOUDS BELOW 12,000 FEET WITH NO
       SIGNIFICANT WEATHER AND/OR OBSTRUCTIONS TO VISIBILITY.
       CURRENT SKY AND/OR WEATHER CONDITIONS ARE NOT AVAILABLE FOR
       CHILLICOTHE AND FARMINGTON.

MOZ001>031-035>038-043-044-053-054-232200-
...NORTHERN AND WESTERN MISSOURI...

CITY           SKY/WX    TMP DP  RH WIND       PRES   REMARKS
KANSAS CTY INT CLOUDY    67  60  78 SE16      30.13F
KANSAS C DTWN  CLOUDY    69  59  70 SE10      30.12F
LEE`S SUMMIT   CLOUDY    67  59  75 SE9       30.14F
ST JOSEPH      CLOUDY    67  59  75 SE9       30.12F
CHILLICOTHE      N/A     71  58  63 SE10G17   30.16F
KIRKSVILLE     CLOUDY    74  54  49 S18G25    30.19F

$$
MOZ066>068-077>081-088>096-101>105-232200-
...SOUTHWEST MISSOURI...

CITY           SKY/WX    TMP DP  RH WIND       PRES   REMARKS
SPRINGFIELD    PTSUNNY   72  59  63 SE15      30.13F
JOPLIN         CLOUDY    73  64  73 SE10      30.08F

$$
MOZ032>034-039>042-045>050-055>058-069>072-232200-
...CENTRAL MISSOURI...

CITY           SKY/WX    TMP DP  RH WIND       PRES   REMARKS
COLUMBIA       CLOUDY    73  55  53 SE13G20   30.19F
JEFFERSON CITY CLOUDY    74  53  48 SE13      30.18F
ROLLA          CLOUDY    70  55  59 SE9       30.19F
SEDALIA        CLOUDY    70  56  61 SE16      30.17F
WHITEMAN AFB   CLOUDY    70  59  67 SE9       30.14F
WARRENSBURG    CLOUDY    68  57  68 SE10      30.14F
OSAGE BEACH    CLOUDY    70  54  56 SE13G21   30.19F

$$
MOZ051-052-059>065-232200-
...EAST CENTRAL MISSOURI...

CITY           SKY/WX    TMP DP  RH WIND       PRES   REMARKS
ST LOUIS INTL  PTSUNNY   78  50  37 S13G22    30.22F
SPIRIT OF STL  PTSUNNY   76  52  43 S6        30.20F
ST CHARLES     PTSUNNY   78  50  37 S16       30.20F

$$
MOZ072>076-082>087-097>100-106>115-232200-
...SOUTH CENTRAL AND SOUTHEAST MISSOURI...

CITY           SKY/WX    TMP DP  RH WIND       PRES   REMARKS
CAPE GIRARDEAU MOSUNNY   77  54  44 SE8       30.22F
FARMINGTON     CLOUDY    72  52  49 SE6       30.27F
POPLAR BLUFF   MOSUNNY   77  51  40 VRB7      30.21F
WEST PLAINS    MOSUNNY   70  55  59 E9G17     30.22F

$$



USA.gov is the U.S. government's official web portal to all federal, state and local government web resources and services.